Weather History for KHSE - September, 2012

Change the Weather History Date:

Friday, September 14, 2012

  Actual Average Record
Temperature  
Mean Temperature 74 °F 75 °F  
Max Temperature 76 °F 80 °F 87 °F (1957)
Min Temperature 71 °F 70 °F 55 °F (1964)
Degree Days  
Heating Degree Days 0 0  
Month to date heating degree days 0 0  
Since 1 July heating degree days 0 0  
Cooling Degree Days 9 10  
Month to date cooling degree days 188 157  
Year to date cooling degree days 1838 1463  
Growing Degree Days 23 (Base 50)    
Moisture  
Dew Point 70 °F    
Average Humidity 89    
Maximum Humidity 93    
Minimum Humidity 84    
Precipitation  
Precipitation 0.65 in 0.23 in 4.00 in (1917)
Month to date precipitation 2.45 3.15  
Year to date precipitation 38.70 40.34  
Snow  
Snow 0.00 in - - ()
Month to date snowfall 0.0  
Since 1 July snowfall 0.0  
Snow Depth 0.00 in    
Sea Level Pressure  
Sea Level Pressure 30.17 in    
Wind  
Wind Speed 4 mph (ENE)    
Max Wind Speed 16 mph    
Max Gust Speed 18 mph    
Visibility 8 miles    
Events Fog , Rain    
T = Trace of Precipitation, MM = Missing Value Source: NWS Daily Summary

Daily Weather History Graph

Daily Weather History Graph

Search for Another Location

Airport or City:

Trip Planner

Search our weather history database for the weather conditions in past years. The results will help you decide how hot, cold, wet, or windy it might be!

Date:

Astronomy

Sep. 14, 2012 Rise Set
Actual Time 6:44 AM EDT 7:10 PM EDT
Civil Twilight 6:19 AM EDT 7:35 PM EDT
Nautical Twilight 5:49 AM EDT 8:05 PM EDT
Astronomical Twilight 5:19 AM EDT 8:35 PM EDT
Moon 5:08 AM EDT (9/14) 6:05 PM EDT (9/14)
Length of Visible Light 13h 16m
Length of Day
12h 25m
Waning Crescent, 3% of the Moon is Illuminated
Sep 14
Waning Crescent
Sep 15
New
Sep 22
First Quarter
Sep 29
Full
Oct 8
Last Quarter

Hourly Weather History & Observations

Time (EDT) Temp. Dew Point Humidity Pressure Visibility Wind Dir Wind Speed Gust Speed Precip Events Conditions
12:51 AM 73.9 °F 70.0 °F 87% 30.22 in 10.0 mi NE 5.8 mph - N/A   Scattered Clouds
1:51 AM 73.9 °F 71.1 °F 91% 30.21 in 10.0 mi NNE 3.5 mph - 0.07 in   Overcast
2:51 AM 73.9 °F 71.1 °F 91% 30.19 in 10.0 mi NE 6.9 mph - N/A   Mostly Cloudy
3:51 AM 73.9 °F 70.0 °F 87% 30.19 in 10.0 mi NE 5.8 mph - N/A   Mostly Cloudy
4:51 AM 73.0 °F 69.1 °F 87% 30.18 in 10.0 mi NE 6.9 mph - N/A   Mostly Cloudy
5:51 AM 73.9 °F 70.0 °F 87% 30.18 in 10.0 mi NE 4.6 mph - 0.01 in   Overcast
6:51 AM 73.0 °F 69.1 °F 87% 30.19 in 10.0 mi ENE 6.9 mph - N/A   Mostly Cloudy
7:51 AM 73.9 °F 69.1 °F 85% 30.20 in 10.0 mi NE 6.9 mph - N/A   Mostly Cloudy
8:51 AM 73.0 °F 69.1 °F 87% 30.20 in 10.0 mi ENE 8.1 mph - N/A   Mostly Cloudy
9:51 AM 72.0 °F 66.9 °F 84% 30.21 in 10.0 mi East 10.4 mph - N/A   Overcast
10:51 AM 73.0 °F 69.1 °F 87% 30.21 in 7.0 mi ENE 3.5 mph - 0.03 in Rain Rain
11:51 AM 73.9 °F 70.0 °F 87% 30.20 in 4.0 mi Calm Calm - 0.03 in Rain Light Rain
12:51 PM 75.9 °F 70.0 °F 82% 30.19 in 10.0 mi Calm Calm - 0.00 in   Overcast
1:51 PM 75.0 °F 71.1 °F 87% 30.17 in 10.0 mi WNW 3.5 mph - 0.01 in   Overcast
2:25 PM 73.4 °F 71.6 °F 94% 30.17 in 3.0 mi Calm Calm - 0.03 in Rain Light Rain
2:33 PM 75.2 °F 71.6 °F 89% 30.16 in 6.0 mi Calm Calm - 0.03 in Rain Light Rain
2:51 PM 75.9 °F 72.0 °F 87% 30.16 in 10.0 mi Calm Calm - 0.04 in   Overcast
3:04 PM 73.4 °F 69.8 °F 88% 30.16 in 1.8 mi ESE 13.8 mph 17.3 mph 0.01 in Rain Heavy Rain
3:08 PM 73.4 °F 69.8 °F 88% 30.16 in 0.8 mi ESE 16.1 mph - 0.07 in Rain Heavy Rain
3:12 PM 73.4 °F 69.8 °F 88% 30.16 in 0.5 mi ESE 13.8 mph - 0.15 in Fog , Rain Heavy Rain
3:25 PM 73.4 °F 69.8 °F 88% 30.16 in 1.5 mi East 10.4 mph - 0.42 in Rain Heavy Rain
3:30 PM 73.4 °F 69.8 °F 88% 30.16 in 2.5 mi East 10.4 mph 17.3 mph 0.43 in Rain Rain
3:37 PM 73.4 °F 69.8 °F 88% 30.16 in 6.0 mi East 8.1 mph 17.3 mph 0.44 in Rain Light Rain
3:51 PM 73.0 °F 69.1 °F 87% 30.16 in 10.0 mi ENE 5.8 mph - 0.44 in   Overcast
4:51 PM 73.0 °F 69.1 °F 87% 30.16 in 7.0 mi ENE 5.8 mph - 0.00 in Rain Light Rain
5:51 PM 72.0 °F 68.0 °F 87% 30.15 in 10.0 mi ENE 4.6 mph - 0.02 in   Overcast
6:51 PM 73.0 °F 69.1 °F 87% 30.16 in 10.0 mi Calm Calm - N/A   Overcast
7:51 PM 71.1 °F 66.9 °F 87% 30.14 in 10.0 mi ENE 4.6 mph - N/A   Overcast
8:51 PM 72.0 °F 68.0 °F 87% 30.14 in 10.0 mi NNE 3.5 mph - N/A   Mostly Cloudy
9:51 PM 71.1 °F 68.0 °F 90% 30.14 in 10.0 mi NE 3.5 mph - N/A   Overcast
10:51 PM 71.1 °F 68.0 °F 90% 30.14 in 10.0 mi NNE 3.5 mph - N/A   Scattered Clouds
11:51 PM 73.0 °F 69.1 °F 87% 30.14 in 10.0 mi NNE 3.5 mph - N/A   Overcast